| time (UTC) | temp C | wind direction | speed KPH | gust KPH | rain 1hr cm | rain 24hr cm | rain mn cm | humidity % | barometer mb |
| 20260508023627 | 26 | 89 | 3.2 | 6.4 | 0.00 | 0.00 | 0.00 | 89 | 1016.3 |
| 20260508023125 | 26 | 85 | 3.2 | 9.7 | 0.00 | 0.00 | 0.00 | 89 | 1016.4 |
| 20260508022621 | 26 | 102 | 8.0 | 9.7 | 0.00 | 0.00 | 0.00 | 89 | 1016.3 |
| 20260508022118 | 26 | 104 | 4.8 | 9.7 | 0.00 | 0.00 | 0.00 | 89 | 1016.1 |
| 20260508021613 | 26 | 87 | 9.7 | 11.3 | 0.00 | 0.00 | 0.00 | 89 | 1016.2 |
| 20260508021110 | 26 | 86 | 6.4 | 8.0 | 0.00 | 0.00 | 0.00 | 89 | 1016.3 |
| 20260508020608 | 26 | 93 | 6.4 | 11.3 | 0.00 | 0.00 | 0.00 | 89 | 1016.3 |
| 20260508020105 | 26 | 101 | 3.2 | 8.0 | 0.00 | 0.00 | 0.00 | 89 | 1016.1 |
| 20260508015602 | 26 | 81 | 6.4 | 9.7 | 0.00 | 0.00 | 0.00 | 89 | 1016.3 |
| 20260508015059 | 26 | 83 | 6.4 | 11.3 | 0.00 | 0.00 | 0.00 | 88 | 1016.4 |
| 20260508014555 | 26 | 68 | 6.4 | 16.1 | 0.00 | 0.00 | 0.00 | 88 | 1016.2 |
| 20260508014052 | 26 | 95 | 4.8 | 12.9 | 0.00 | 0.00 | 0.00 | 88 | 1016.4 |
| 20260508013548 | 26 | 69 | 6.4 | 12.9 | 0.00 | 0.00 | 0.00 | 88 | 1016.3 |
| 20260508013045 | 26 | 69 | 9.7 | 12.9 | 0.00 | 0.00 | 0.00 | 88 | 1016.4 |
| 20260508012542 | 26 | 72 | 9.7 | 11.3 | 0.00 | 0.00 | 0.00 | 88 | 1016.2 |
| 20260508012040 | 26 | 76 | 8.0 | 11.3 | 0.00 | 0.00 | 0.00 | 88 | 1016.3 |
| 20260508011538 | 26 | 77 | 8.0 | 11.3 | 0.00 | 0.00 | 0.00 | 88 | 1015.9 |
| 20260508011035 | 26 | 73 | 11.3 | 12.9 | 0.00 | 0.00 | 0.00 | 88 | 1016.2 |
| 20260508010531 | 26 | 70 | 8.0 | 11.3 | 0.00 | 0.00 | 0.00 | 88 | 1016.1 |
| 20260508010029 | 26 | 80 | 6.4 | 14.5 | 0.00 | 0.00 | 0.00 | 88 | 1016.2 |
| 20260508005525 | 26 | 70 | 9.7 | 12.9 | 0.00 | 0.00 | 0.00 | 88 | 1016.0 |
| 20260508005022 | 26 | 82 | 9.7 | 12.9 | 0.00 | 0.00 | 0.00 | 88 | 1015.8 |
| 20260508004518 | 26 | 77 | 11.3 | 12.9 | 0.00 | 0.00 | 0.00 | 88 | 1016.0 |
| 20260508004015 | 26 | 71 | 9.7 | 14.5 | 0.00 | 0.00 | 0.00 | 88 | 1016.0 |
| 20260508003512 | 27 | 71 | 11.3 | 14.5 | 0.00 | 0.00 | 0.00 | 87 | 1015.8 |
| 20260508003009 | 27 | 73 | 14.5 | 16.1 | 0.00 | 0.00 | 0.00 | 87 | 1015.8 |
| 20260508002505 | 26 | 79 | 12.9 | 14.5 | 0.00 | 0.00 | 0.00 | 87 | 1015.8 |
| 20260508002003 | 27 | 65 | 9.7 | 14.5 | 0.00 | 0.00 | 0.00 | 87 | 1016.0 |
| 20260508001458 | 26 | 69 | 12.9 | 12.9 | 0.00 | 0.00 | 0.00 | 87 | 1015.8 |
| 20260508000955 | 26 | 74 | 9.7 | 12.9 | 0.00 | 0.00 | 0.00 | 87 | 1015.7 |
| 20260508000450 | 27 | 66 | 6.4 | 12.9 | 0.00 | 0.00 | 0.00 | 87 | 1015.7 |
| 20260507235948 | 27 | 83 | 8.0 | 12.9 | 0.00 | 0.00 | 0.00 | 87 | 1015.7 |
| 20260507235444 | 27 | 69 | 9.7 | 12.9 | 0.00 | 0.00 | 0.00 | 86 | 1015.4 |
| 20260507234942 | 27 | 78 | 9.7 | 14.5 | 0.00 | 0.00 | 0.00 | 86 | 1015.7 |
| 20260507234438 | 27 | 70 | 11.3 | 16.1 | 0.00 | 0.00 | 0.00 | 86 | 1015.5 |
| 20260507233935 | 27 | 77 | 9.7 | 14.5 | 0.00 | 0.00 | 0.00 | 86 | 1015.5 |
| 20260507233432 | 27 | 77 | 6.4 | 16.1 | 0.00 | 0.00 | 0.00 | 86 | 1015.6 |
| 20260507232930 | 27 | 77 | 9.7 | 12.9 | 0.00 | 0.00 | 0.00 | 85 | 1015.5 |
| 20260507232426 | 27 | 80 | 9.7 | 12.9 | 0.00 | 0.00 | 0.00 | 85 | 1015.3 |
| 20260507231924 | 27 | 87 | 8.0 | 12.9 | 0.00 | 0.00 | 0.00 | 84 | 1015.4 |
| 20260507231420 | 27 | 76 | 9.7 | 12.9 | 0.00 | 0.00 | 0.00 | 84 | 1015.4 |
| 20260507230917 | 27 | 75 | 9.7 | 14.5 | 0.00 | 0.00 | 0.00 | 84 | 1015.3 |
| 20260507230415 | 27 | 73 | 9.7 | 14.5 | 0.00 | 0.00 | 0.00 | 84 | 1015.4 |
| 20260507225914 | 27 | 80 | 9.7 | 14.5 | 0.00 | 0.00 | 0.00 | 83 | 1015.2 |
| 20260507225411 | 27 | 69 | 8.0 | 14.5 | 0.00 | 0.00 | 0.00 | 83 | 1015.2 |
| 20260507224907 | 27 | 77 | 12.9 | 17.7 | 0.00 | 0.00 | 0.00 | 83 | 1015.2 |
| 20260507224403 | 27 | 71 | 14.5 | 14.5 | 0.00 | 0.00 | 0.00 | 83 | 1015.2 |
| 20260507223900 | 27 | 70 | 11.3 | 14.5 | 0.00 | 0.00 | 0.00 | 82 | 1015.1 |
| 20260507223356 | 27 | 66 | 11.3 | 14.5 | 0.00 | 0.00 | 0.00 | 82 | 1015.1 |
| 20260507222854 | 28 | 71 | 12.9 | 14.5 | 0.00 | 0.00 | 0.00 | 82 | 1015.0 |
| 20260507222349 | 28 | 70 | 9.7 | 16.1 | 0.00 | 0.00 | 0.00 | 82 | 1015.1 |
| 20260507221846 | 28 | 59 | 8.0 | 12.9 | 0.00 | 0.00 | 0.00 | 82 | 1015.2 |
| 20260507221343 | 28 | 60 | 11.3 | 14.5 | 0.00 | 0.00 | 0.00 | 81 | 1015.2 |
| 20260507220839 | 28 | 50 | 6.4 | 12.9 | 0.00 | 0.00 | 0.00 | 81 | 1015.1 |
| 20260507220337 | 28 | 52 | 9.7 | 17.7 | 0.00 | 0.00 | 0.00 | 81 | 1015.2 |
| 20260507215833 | 28 | 75 | 12.9 | 16.1 | 0.00 | 0.00 | 0.00 | 81 | 1015.1 |
| 20260507215330 | 28 | 66 | 11.3 | 16.1 | 0.00 | 0.00 | 0.00 | 80 | 1015.1 |
| 20260507214827 | 28 | 76 | 9.7 | 14.5 | 0.00 | 0.00 | 0.00 | 80 | 1015.0 |
| 20260507214326 | 28 | 75 | 11.3 | 17.7 | 0.00 | 0.00 | 0.00 | 80 | 1014.9 |
| 20260507213826 | 28 | 65 | 6.4 | 14.5 | 0.00 | 0.00 | 0.00 | 80 | 1014.9 |
| 20260507213323 | 28 | 74 | 6.4 | 17.7 | 0.00 | 0.00 | 0.00 | 79 | 1015.0 |
| 20260507212820 | 28 | 91 | 6.4 | 12.9 | 0.00 | 0.00 | 0.00 | 79 | 1015.1 |
| 20260507212316 | 28 | 80 | 6.4 | 11.3 | 0.00 | 0.00 | 0.00 | 79 | 1015.0 |
| 20260507211812 | 28 | 65 | 8.0 | 14.5 | 0.00 | 0.00 | 0.00 | 79 | 1014.9 |
| 20260507211309 | 29 | 88 | 4.8 | 11.3 | 0.00 | 0.00 | 0.00 | 79 | 1014.9 |
| 20260507210806 | 28 | 97 | 4.8 | 9.7 | 0.00 | 0.00 | 0.00 | 80 | 1015.1 |
| 20260507210303 | 28 | 71 | 9.7 | 16.1 | 0.00 | 0.00 | 0.00 | 80 | 1015.1 |
| 20260507205759 | 28 | 67 | 16.1 | 17.7 | 0.00 | 0.00 | 0.00 | 79 | 1015.1 |
| 20260507205256 | 28 | 71 | 12.9 | 16.1 | 0.00 | 0.00 | 0.00 | 79 | 1015.0 |
| 20260507204752 | 28 | 92 | 6.4 | 12.9 | 0.00 | 0.00 | 0.00 | 81 | 1015.1 |
| 20260507204250 | 28 | 65 | 9.7 | 17.7 | 0.00 | 0.00 | 0.00 | 80 | 1015.1 |
| 20260507203748 | 28 | 88 | 8.0 | 16.1 | 0.00 | 0.00 | 0.00 | 81 | 1015.2 |
| 20260507203245 | 28 | 63 | 9.7 | 19.3 | 0.00 | 0.00 | 0.00 | 80 | 1015.1 |
| 20260507202741 | 28 | 75 | 9.7 | 16.1 | 0.00 | 0.00 | 0.00 | 80 | 1015.1 |
| 20260507202237 | 28 | 71 | 8.0 | 12.9 | 0.00 | 0.00 | 0.00 | 81 | 1015.3 |
| 20260507201732 | 28 | 75 | 8.0 | 16.1 | 0.00 | 0.00 | 0.00 | 81 | 1014.9 |
| 20260507201229 | 28 | 81 | 8.0 | 12.9 | 0.00 | 0.00 | 0.00 | 79 | 1015.1 |
| 20260507200726 | 29 | 96 | 8.0 | 17.7 | 0.00 | 0.00 | 0.00 | 80 | 1015.2 |
| 20260507200222 | 28 | 76 | 12.9 | 19.3 | 0.00 | 0.00 | 0.00 | 79 | 1015.2 |
| 20260507195718 | 28 | 77 | 9.7 | 16.1 | 0.00 | 0.00 | 0.00 | 79 | 1015.1 |
| 20260507195216 | 28 | 79 | 6.4 | 14.5 | 0.00 | 0.00 | 0.00 | 80 | 1015.3 |
| 20260507194712 | 29 | 80 | 9.7 | 14.5 | 0.00 | 0.00 | 0.00 | 79 | 1015.4 |
| 20260507194209 | 29 | 110 | 4.8 | 16.1 | 0.00 | 0.00 | 0.00 | 79 | 1015.3 |
| 20260507193705 | 29 | 87 | 9.7 | 14.5 | 0.00 | 0.00 | 0.00 | 80 | 1015.2 |
| 20260507193202 | 29 | 87 | 11.3 | 16.1 | 0.00 | 0.00 | 0.00 | 80 | 1015.3 |
| 20260507192658 | 28 | 108 | 8.0 | 14.5 | 0.00 | 0.00 | 0.00 | 80 | 1015.3 |
| 20260507192155 | 29 | 89 | 11.3 | 16.1 | 0.00 | 0.00 | 0.00 | 80 | 1015.4 |
| 20260507191651 | 28 | 85 | 9.7 | 17.7 | 0.00 | 0.00 | 0.00 | 82 | 1015.4 |
| 20260507191148 | 28 | 79 | 14.5 | 20.9 | 0.00 | 0.00 | 0.00 | 81 | 1015.5 |
| 20260507190645 | 28 | 81 | 12.9 | 20.9 | 0.00 | 0.00 | 0.00 | 80 | 1015.3 |
| 20260507190144 | 28 | 77 | 14.5 | 17.7 | 0.00 | 0.00 | 0.00 | 81 | 1015.5 |
| 20260507185642 | 28 | 80 | 14.5 | 22.5 | 0.00 | 0.00 | 0.00 | 81 | 1015.5 |
| 20260507185138 | 28 | 82 | 17.7 | 24.1 | 0.00 | 0.00 | 0.00 | 80 | 1015.7 |
| 20260507184636 | 28 | 77 | 9.7 | 20.9 | 0.00 | 0.00 | 0.00 | 81 | 1015.6 |
| 20260507184134 | 28 | 77 | 16.1 | 24.1 | 0.00 | 0.00 | 0.00 | 81 | 1015.8 |
| 20260507183630 | 28 | 70 | 19.3 | 22.5 | 0.00 | 0.00 | 0.00 | 81 | 1015.8 |
| 20260507183127 | 28 | 82 | 12.9 | 17.7 | 0.00 | 0.00 | 0.00 | 82 | 1016.1 |
| 20260507182623 | 28 | 65 | 19.3 | 20.9 | 0.00 | 0.00 | 0.00 | 81 | 1016.0 |
| 20260507182119 | 28 | 80 | 17.7 | 24.1 | 0.00 | 0.00 | 0.00 | 82 | 1016.0 |
| 20260507181616 | 28 | 69 | 14.5 | 22.5 | 0.00 | 0.00 | 0.00 | 82 | 1016.2 |
| 20260507181112 | 28 | 74 | 14.5 | 24.1 | 0.00 | 0.00 | 0.00 | 81 | 1016.1 |
| 20260507180609 | 28 | 85 | 14.5 | 22.5 | 0.00 | 0.00 | 0.00 | 82 | 1016.1 |
| 20260507180106 | 28 | 85 | 14.5 | 22.5 | 0.00 | 0.00 | 0.00 | 81 | 1016.3 |
| 20260507175602 | 28 | 94 | 9.7 | 19.3 | 0.00 | 0.00 | 0.00 | 81 | 1016.3 |
| 20260507175100 | 28 | 74 | 11.3 | 22.5 | 0.00 | 0.00 | 0.00 | 82 | 1016.6 |
| 20260507174557 | 28 | 69 | 16.1 | 22.5 | 0.00 | 0.00 | 0.00 | 80 | 1016.5 |
| 20260507174054 | 28 | 87 | 11.3 | 20.9 | 0.00 | 0.00 | 0.00 | 81 | 1016.6 |
| 20260507173551 | 28 | 74 | 14.5 | 24.1 | 0.00 | 0.00 | 0.00 | 81 | 1016.4 |
| 20260507173048 | 28 | 72 | 12.9 | 20.9 | 0.00 | 0.00 | 0.00 | 81 | 1016.5 |
| 20260507172544 | 28 | 74 | 11.3 | 17.7 | 0.00 | 0.00 | 0.00 | 81 | 1016.5 |
| 20260507172042 | 28 | 74 | 16.1 | 24.1 | 0.00 | 0.00 | 0.00 | 81 | 1016.5 |
| 20260507171536 | 28 | 83 | 16.1 | 19.3 | 0.00 | 0.00 | 0.00 | 81 | 1016.6 |
| 20260507171034 | 28 | 73 | 19.3 | 25.7 | 0.00 | 0.00 | 0.00 | 80 | 1016.6 |
| 20260507170530 | 28 | 82 | 9.7 | 20.9 | 0.00 | 0.00 | 0.00 | 79 | 1016.6 |
| 20260507170028 | 29 | 70 | 8.0 | 16.1 | 0.00 | 0.00 | 0.00 | 79 | 1016.9 |
| 20260507165523 | 28 | 92 | 11.3 | 19.3 | 0.00 | 0.00 | 0.00 | 80 | 1016.8 |
| 20260507165020 | 28 | 85 | 17.7 | 25.7 | 0.00 | 0.00 | 0.00 | 79 | 1016.8 |
| 20260507164516 | 29 | 73 | 16.1 | 19.3 | 0.00 | 0.00 | 0.00 | 79 | 1017.0 |
| 20260507164013 | 29 | 105 | 12.9 | 17.7 | 0.00 | 0.00 | 0.00 | 79 | 1017.0 |
| 20260507163510 | 29 | 108 | 9.7 | 17.7 | 0.00 | 0.00 | 0.00 | 79 | 1017.1 |
| 20260507163009 | 28 | 87 | 16.1 | 20.9 | 0.00 | 0.00 | 0.00 | 79 | 1017.0 |
| 20260507162503 | 29 | 86 | 12.9 | 17.7 | 0.00 | 0.00 | 0.00 | 79 | 1017.0 |
| 20260507162000 | 28 | 76 | 12.9 | 20.9 | 0.00 | 0.00 | 0.00 | 79 | 1017.0 |
| 20260507161456 | 29 | 69 | 17.7 | 22.5 | 0.00 | 0.00 | 0.00 | 79 | 1017.0 |
| 20260507160954 | 29 | 94 | 9.7 | 17.7 | 0.00 | 0.00 | 0.00 | 79 | 1017.3 |
| 20260507160449 | 29 | 79 | 9.7 | 17.7 | 0.00 | 0.00 | 0.00 | 79 | 1017.0 |
| 20260507155945 | 29 | 87 | 16.1 | 17.7 | 0.00 | 0.00 | 0.00 | 79 | 1017.3 |
| 20260507155441 | 28 | 84 | 9.7 | 20.9 | 0.00 | 0.00 | 0.00 | 80 | 1017.4 |
| 20260507154939 | 29 | 70 | 8.0 | 20.9 | 0.00 | 0.00 | 0.00 | 80 | 1017.5 |
| 20260507154435 | 28 | 89 | 8.0 | 20.9 | 0.00 | 0.00 | 0.00 | 80 | 1017.4 |
| 20260507153932 | 28 | 83 | 11.3 | 17.7 | 0.00 | 0.00 | 0.00 | 80 | 1017.5 |
| 20260507153429 | 28 | 76 | 16.1 | 22.5 | 0.00 | 0.00 | 0.00 | 79 | 1017.5 |
| 20260507152925 | 28 | 79 | 11.3 | 17.7 | 0.00 | 0.00 | 0.00 | 80 | 1017.6 |
| 20260507152421 | 28 | 96 | 8.0 | 19.3 | 0.00 | 0.00 | 0.00 | 79 | 1017.7 |
| 20260507151917 | 28 | 78 | 14.5 | 22.5 | 0.00 | 0.00 | 0.00 | 79 | 1017.6 |
| 20260507151414 | 28 | 102 | 4.8 | 17.7 | 0.00 | 0.00 | 0.00 | 79 | 1017.6 |
| 20260507150911 | 28 | 89 | 9.7 | 19.3 | 0.00 | 0.00 | 0.00 | 79 | 1017.8 |
| 20260507150408 | 28 | 78 | 12.9 | 17.7 | 0.00 | 0.00 | 0.00 | 79 | 1017.7 |
| 20260507145904 | 28 | 72 | 11.3 | 17.7 | 0.00 | 0.00 | 0.00 | 79 | 1017.6 |
| 20260507145400 | 29 | 83 | 9.7 | 17.7 | 0.00 | 0.00 | 0.00 | 78 | 1017.6 |
| 20260507144857 | 29 | 66 | 6.4 | 16.1 | 0.00 | 0.00 | 0.00 | 79 | 1017.4 |
| 20260507144355 | 28 | 83 | 6.4 | 14.5 | 0.00 | 0.00 | 0.00 | 79 | 1017.4 |
| 20260507143851 | 28 | 83 | 12.9 | 20.9 | 0.00 | 0.00 | 0.00 | 79 | 1017.4 |
| 20260507143348 | 28 | 73 | 9.7 | 20.9 | 0.00 | 0.00 | 0.00 | 78 | 1017.4 |
| 20260507142845 | 29 | 93 | 9.7 | 14.5 | 0.00 | 0.00 | 0.00 | 79 | 1017.4 |
| 20260507142341 | 28 | 95 | 9.7 | 22.5 | 0.00 | 0.00 | 0.00 | 78 | 1017.6 |
| 20260507141838 | 29 | 114 | 8.0 | 14.5 | 0.00 | 0.00 | 0.00 | 78 | 1017.4 |
| 20260507141334 | 29 | 99 | 9.7 | 22.5 | 0.00 | 0.00 | 0.00 | 79 | 1017.4 |
| 20260507140831 | 29 | 88 | 9.7 | 17.7 | 0.00 | 0.00 | 0.00 | 78 | 1017.4 |
| 20260507140328 | 28 | 108 | 9.7 | 20.9 | 0.00 | 0.00 | 0.00 | 79 | 1017.2 |
| 20260507135826 | 29 | 93 | 6.4 | 14.5 | 0.00 | 0.00 | 0.00 | 79 | 1017.2 |
| 20260507135322 | 29 | 102 | 9.7 | 16.1 | 0.00 | 0.00 | 0.00 | 79 | 1017.3 |
| 20260507134819 | 29 | 95 | 11.3 | 19.3 | 0.00 | 0.00 | 0.00 | 78 | 1017.2 |
| 20260507134316 | 29 | 110 | 8.0 | 11.3 | 0.00 | 0.00 | 0.00 | 79 | 1017.3 |
| 20260507133811 | 29 | 113 | 12.9 | 14.5 | 0.00 | 0.00 | 0.00 | 79 | 1017.3 |
| 20260507133308 | 28 | 70 | 9.7 | 12.9 | 0.00 | 0.00 | 0.00 | 80 | 1017.3 |
| 20260507132806 | 28 | 91 | 8.0 | 14.5 | 0.00 | 0.00 | 0.00 | 81 | 1017.2 |
| 20260507132306 | 28 | 95 | 8.0 | 20.9 | 0.00 | 0.00 | 0.00 | 80 | 1017.2 |
| 20260507131759 | 28 | 84 | 9.7 | 14.5 | 0.00 | 0.00 | 0.00 | 81 | 1017.1 |
| 20260507131256 | 28 | 83 | 8.0 | 14.5 | 0.00 | 0.00 | 0.00 | 81 | 1017.2 |
| 20260507130753 | 28 | 88 | 6.4 | 11.3 | 0.00 | 0.00 | 0.00 | 82 | 1017.2 |
| 20260507130250 | 28 | 87 | 4.8 | 17.7 | 0.00 | 0.00 | 0.00 | 82 | 1017.0 |
| 20260507125749 | 28 | 93 | 8.0 | 17.7 | 0.00 | 0.00 | 0.00 | 83 | 1017.0 |
| 20260507125246 | 28 | 119 | 1.6 | 16.1 | 0.00 | 0.00 | 0.00 | 83 | 1016.9 |
| 20260507124743 | 28 | 69 | 4.8 | 11.3 | 0.00 | 0.00 | 0.00 | 84 | 1017.0 |
| 20260507124239 | 28 | 69 | 6.4 | 14.5 | 0.00 | 0.00 | 0.00 | 85 | 1016.9 |
| 20260507123738 | 28 | 106 | 8.0 | 14.5 | 0.00 | 0.00 | 0.00 | 85 | 1016.6 |
| 20260507123235 | 27 | 92 | 4.8 | 6.4 | 0.00 | 0.00 | 0.00 | 86 | 1016.8 |
| 20260507122730 | 27 | 97 | 1.6 | 9.7 | 0.00 | 0.00 | 0.00 | 86 | 1016.7 |
| 20260507122227 | 27 | 102 | 4.8 | 8.0 | 0.00 | 0.00 | 0.00 | 87 | 1016.8 |
| 20260507121722 | 27 | 120 | 8.0 | 11.3 | 0.00 | 0.00 | 0.00 | 87 | 1016.6 |
| 20260507121218 | 27 | 102 | 3.2 | 8.0 | 0.00 | 0.00 | 0.00 | 88 | 1016.6 |
| 20260507120715 | 27 | 80 | 4.8 | 16.1 | 0.00 | 0.00 | 0.00 | 88 | 1016.5 |
| 20260507120212 | 27 | 119 | 3.2 | 9.7 | 0.00 | 0.00 | 0.00 | 88 | 1016.4 |
| 20260507115708 | 27 | 132 | 9.7 | 9.7 | 0.00 | 0.00 | 0.00 | 89 | 1016.6 |
| 20260507115204 | 27 | 73 | 3.2 | 9.7 | 0.00 | 0.00 | 0.00 | 89 | 1016.4 |
| 20260507114659 | 27 | 105 | 3.2 | 12.9 | 0.00 | 0.00 | 0.00 | 89 | 1016.4 |
| 20260507114157 | 27 | 108 | 6.4 | 6.4 | 0.00 | 0.00 | 0.00 | 90 | 1016.5 |
| 20260507113654 | 27 | 84 | 4.8 | 6.4 | 0.00 | 0.00 | 0.00 | 91 | 1016.4 |
| 20260507113151 | 26 | 105 | 6.4 | 9.7 | 0.00 | 0.00 | 0.00 | 90 | 1016.1 |
| 20260507112649 | 26 | 87 | 4.8 | 8.0 | 0.00 | 0.00 | 0.00 | 91 | 1016.2 |
| 20260507112145 | 26 | 94 | 3.2 | 6.4 | 0.00 | 0.00 | 0.00 | 91 | 1016.0 |
| 20260507111643 | 26 | 41 | 1.6 | 9.7 | 0.00 | 0.00 | 0.00 | 92 | 1015.9 |
| 20260507111139 | 26 | 119 | 6.4 | 8.0 | 0.00 | 0.00 | 0.00 | 92 | 1016.0 |
| 20260507110635 | 25 | 124 | 6.4 | 6.4 | 0.00 | 0.00 | 0.00 | 92 | 1016.2 |
| 20260507110132 | 25 | 110 | 6.4 | 6.4 | 0.00 | 0.00 | 0.00 | 92 | 1016.0 |
| 20260507105629 | 25 | 92 | 6.4 | 6.4 | 0.00 | 0.00 | 0.00 | 92 | 1016.0 |
| 20260507105125 | 25 | 66 | 1.6 | 9.7 | 0.00 | 0.00 | 0.00 | 92 | 1015.9 |
| 20260507104622 | 25 | 95 | 1.6 | 9.7 | 0.00 | 0.00 | 0.00 | 92 | 1016.0 |
| 20260507104119 | 25 | 124 | 6.4 | 8.0 | 0.00 | 0.00 | 0.00 | 92 | 1015.9 |
| 20260507103615 | 25 | 131 | 4.8 | 9.7 | 0.00 | 0.00 | 0.00 | 92 | 1015.8 |
| 20260507103112 | 25 | 130 | 4.8 | 8.0 | 0.00 | 0.00 | 0.00 | 92 | 1015.7 |
| 20260507102608 | 25 | 104 | 4.8 | 8.0 | 0.00 | 0.00 | 0.00 | 92 | 1015.6 |
| 20260507102105 | 25 | 127 | 4.8 | 9.7 | 0.00 | 0.00 | 0.00 | 92 | 1015.6 |
| 20260507101601 | 25 | 126 | 4.8 | 9.7 | 0.00 | 0.00 | 0.00 | 92 | 1015.5 |
| 20260507101057 | 25 | 129 | 8.0 | 9.7 | 0.00 | 0.00 | 0.00 | 92 | 1015.7 |
| 20260507100554 | 25 | 125 | 3.2 | 8.0 | 0.00 | 0.00 | 0.00 | 92 | 1015.6 |
| 20260507100052 | 25 | 124 | 3.2 | 6.4 | 0.00 | 0.00 | 0.00 | 92 | 1015.7 |
| 20260507095549 | 25 | 109 | 3.2 | 9.7 | 0.00 | 0.00 | 0.00 | 92 | 1015.8 |
| 20260507095046 | 25 | 127 | 6.4 | 9.7 | 0.00 | 0.00 | 0.00 | 92 | 1015.6 |
| 20260507094542 | 25 | 114 | 6.4 | 9.7 | 0.00 | 0.00 | 0.00 | 92 | 1015.7 |
| 20260507094039 | 25 | 96 | 3.2 | 8.0 | 0.00 | 0.00 | 0.00 | 92 | 1015.5 |
| 20260507093537 | 25 | 101 | 4.8 | 9.7 | 0.00 | 0.00 | 0.00 | 92 | 1015.5 |
| 20260507093036 | 25 | 84 | 4.8 | 6.4 | 0.00 | 0.00 | 0.00 | 92 | 1015.6 |
| 20260507092531 | 25 | 91 | 1.6 | 6.4 | 0.00 | 0.00 | 0.00 | 92 | 1015.3 |
| 20260507092028 | 25 | 109 | 3.2 | 8.0 | 0.00 | 0.00 | 0.00 | 92 | 1015.5 |
| 20260507091525 | 25 | 126 | 3.2 | 9.7 | 0.00 | 0.00 | 0.00 | 92 | 1015.5 |
| 20260507091021 | 25 | 104 | 3.2 | 6.4 | 0.00 | 0.00 | 0.00 | 92 | 1015.4 |
| 20260507090517 | 25 | 108 | 6.4 | 8.0 | 0.00 | 0.00 | 0.00 | 92 | 1015.5 |
| 20260507090014 | 25 | 70 | 3.2 | 8.0 | 0.00 | 0.00 | 0.00 | 92 | 1015.4 |
| 20260507085511 | 25 | 133 | 4.8 | 6.4 | 0.00 | 0.00 | 0.00 | 92 | 1015.6 |
| 20260507085008 | 25 | 110 | 0.0 | 9.7 | 0.00 | 0.00 | 0.00 | 92 | 1015.5 |
| 20260507084504 | 25 | 118 | 3.2 | 9.7 | 0.00 | 0.00 | 0.00 | 92 | 1015.5 |
| 20260507084002 | 25 | 121 | 4.8 | 8.0 | 0.00 | 0.00 | 0.00 | 92 | 1015.5 |
| 20260507083458 | 25 | 119 | 4.8 | 6.4 | 0.00 | 0.00 | 0.00 | 92 | 1015.4 |
| 20260507082954 | 25 | 109 | 3.2 | 8.0 | 0.00 | 0.00 | 0.00 | 92 | 1015.5 |
| 20260507082450 | 25 | 107 | 3.2 | 8.0 | 0.00 | 0.00 | 0.00 | 92 | 1015.5 |
| 20260507081947 | 25 | 99 | 3.2 | 8.0 | 0.00 | 0.00 | 0.00 | 92 | 1015.3 |
| 20260507081443 | 25 | 103 | 4.8 | 6.4 | 0.00 | 0.00 | 0.00 | 92 | 1015.3 |
| 20260507080941 | 25 | 73 | 0.0 | 3.2 | 0.00 | 0.00 | 0.00 | 92 | 1015.3 |
| 20260507080436 | 25 | 109 | 3.2 | 9.7 | 0.00 | 0.00 | 0.00 | 92 | 1015.4 |
| 20260507075932 | 25 | 97 | 3.2 | 6.4 | 0.00 | 0.00 | 0.00 | 92 | 1015.3 |
| 20260507075428 | 25 | 128 | 4.8 | 9.7 | 0.00 | 0.00 | 0.00 | 92 | 1015.1 |
| 20260507074925 | 25 | 137 | 6.4 | 16.1 | 0.00 | 0.00 | 0.00 | 92 | 1015.1 |
| 20260507074422 | 25 | 119 | 6.4 | 9.7 | 0.00 | 0.00 | 0.00 | 92 | 1015.1 |
| 20260507073920 | 25 | 128 | 6.4 | 9.7 | 0.00 | 0.00 | 0.00 | 92 | 1015.0 |
| 20260507073416 | 25 | 85 | 6.4 | 8.0 | 0.00 | 0.00 | 0.00 | 92 | 1015.2 |
| 20260507072913 | 25 | 104 | 3.2 | 9.7 | 0.00 | 0.00 | 0.00 | 92 | 1015.4 |
| 20260507072411 | 25 | 129 | 8.0 | 14.5 | 0.00 | 0.00 | 0.00 | 92 | 1015.2 |
| 20260507071908 | 25 | 91 | 3.2 | 9.7 | 0.00 | 0.00 | 0.00 | 92 | 1015.2 |
| 20260507071405 | 25 | 116 | 6.4 | 9.7 | 0.00 | 0.00 | 0.00 | 92 | 1015.1 |
| 20260507070901 | 25 | 130 | 4.8 | 9.7 | 0.00 | 0.00 | 0.00 | 92 | 1015.4 |
| 20260507070359 | 25 | 102 | 6.4 | 9.7 | 0.00 | 0.00 | 0.00 | 92 | 1015.4 |
| 20260507065855 | 25 | 103 | 6.4 | 8.0 | 0.00 | 0.00 | 0.00 | 92 | 1015.5 |
| 20260507065352 | 25 | 100 | 3.2 | 11.3 | 0.00 | 0.00 | 0.00 | 92 | 1015.6 |
| 20260507064849 | 25 | 106 | 6.4 | 9.7 | 0.00 | 0.00 | 0.00 | 91 | 1015.3 |
| 20260507064347 | 25 | 108 | 4.8 | 9.7 | 0.00 | 0.00 | 0.00 | 91 | 1015.5 |
| 20260507063845 | 25 | 121 | 3.2 | 11.3 | 0.00 | 0.00 | 0.00 | 91 | 1015.6 |
| 20260507063342 | 25 | 122 | 9.7 | 9.7 | 0.00 | 0.00 | 0.00 | 91 | 1015.7 |
| 20260507062838 | 25 | 82 | 3.2 | 9.7 | 0.00 | 0.00 | 0.00 | 92 | 1015.9 |
| 20260507062335 | 25 | 123 | 6.4 | 16.1 | 0.00 | 0.00 | 0.00 | 92 | 1016.0 |
| 20260507061833 | 25 | 110 | 3.2 | 11.3 | 0.00 | 0.00 | 0.00 | 92 | 1016.0 |
| 20260507061331 | 26 | 96 | 3.2 | 9.7 | 0.00 | 0.00 | 0.00 | 91 | 1016.1 |
| 20260507060829 | 26 | 99 | 4.8 | 6.4 | 0.00 | 0.00 | 0.00 | 91 | 1016.1 |
| 20260507060326 | 26 | 78 | 4.8 | 12.9 | 0.00 | 0.00 | 0.00 | 91 | 1016.2 |
| 20260507055822 | 26 | 97 | 4.8 | 12.9 | 0.00 | 0.00 | 0.00 | 91 | 1016.1 |
| 20260507055318 | 26 | 95 | 3.2 | 9.7 | 0.00 | 0.00 | 0.00 | 91 | 1016.0 |
| 20260507054814 | 26 | 99 | 8.0 | 9.7 | 0.00 | 0.00 | 0.00 | 91 | 1016.1 |
| 20260507054310 | 26 | 86 | 3.2 | 12.9 | 0.00 | 0.00 | 0.00 | 91 | 1016.3 |
| 20260507053808 | 26 | 98 | 6.4 | 11.3 | 0.00 | 0.00 | 0.00 | 91 | 1016.4 |
| 20260507053306 | 26 | 100 | 6.4 | 9.7 | 0.00 | 0.00 | 0.00 | 91 | 1016.2 |
| 20260507052805 | 26 | 105 | 6.4 | 9.7 | 0.00 | 0.00 | 0.00 | 91 | 1016.4 |
| 20260507052300 | 26 | 98 | 6.4 | 12.9 | 0.00 | 0.00 | 0.00 | 91 | 1016.5 |
| 20260507051759 | 26 | 104 | 9.7 | 12.9 | 0.00 | 0.00 | 0.00 | 91 | 1016.4 |
| 20260507051255 | 26 | 67 | 4.8 | 17.7 | 0.00 | 0.00 | 0.00 | 91 | 1016.6 |
| 20260507050752 | 26 | 102 | 4.8 | 9.7 | 0.00 | 0.00 | 0.00 | 91 | 1016.7 |
| 20260507050249 | 26 | 97 | 6.4 | 12.9 | 0.00 | 0.00 | 0.00 | 91 | 1016.6 |
| 20260507045746 | 26 | 75 | 6.4 | 14.5 | 0.00 | 0.00 | 0.00 | 91 | 1016.7 |
| 20260507045242 | 26 | 47 | 3.2 | 11.3 | 0.00 | 0.00 | 0.00 | 91 | 1016.7 |
| 20260507044739 | 26 | 102 | 4.8 | 14.5 | 0.00 | 0.00 | 0.00 | 91 | 1016.8 |
| 20260507044235 | 26 | 93 | 4.8 | 11.3 | 0.00 | 0.00 | 0.00 | 91 | 1016.7 |
| 20260507043732 | 26 | 92 | 8.0 | 14.5 | 0.00 | 0.00 | 0.00 | 91 | 1016.6 |
| 20260507043229 | 26 | 87 | 6.4 | 14.5 | 0.00 | 0.00 | 0.00 | 91 | 1016.8 |
| 20260507042725 | 26 | 74 | 8.0 | 14.5 | 0.00 | 0.00 | 0.00 | 91 | 1016.9 |
| 20260507042220 | 26 | 85 | 4.8 | 12.9 | 0.00 | 0.00 | 0.00 | 91 | 1016.8 |
| 20260507041718 | 26 | 62 | 8.0 | 11.3 | 0.00 | 0.00 | 0.00 | 91 | 1016.9 |
| 20260507041214 | 26 | 82 | 4.8 | 11.3 | 0.00 | 0.00 | 0.00 | 91 | 1017.0 |
| 20260507040711 | 26 | 89 | 9.7 | 11.3 | 0.00 | 0.00 | 0.00 | 91 | 1017.0 |
| 20260507040207 | 26 | 79 | 9.7 | 9.7 | 0.00 | 0.00 | 0.00 | 90 | 1017.1 |
| 20260507035703 | 26 | 85 | 6.4 | 14.5 | 0.00 | 0.53 | 0.53 | 91 | 1017.4 |
| 20260507035159 | 26 | 80 | 6.4 | 11.3 | 0.00 | 0.53 | 0.53 | 90 | 1017.1 |
| 20260507034656 | 26 | 96 | 4.8 | 9.7 | 0.00 | 0.53 | 0.53 | 90 | 1017.2 |
| 20260507034154 | 26 | 86 | 4.8 | 8.0 | 0.00 | 0.53 | 0.53 | 90 | 1017.3 |
| 20260507033652 | 26 | 74 | 4.8 | 11.3 | 0.00 | 0.53 | 0.53 | 90 | 1017.5 |
| 20260507033149 | 26 | 70 | 8.0 | 11.3 | 0.00 | 0.53 | 0.53 | 90 | 1017.5 |
| 20260507032646 | 26 | 87 | 6.4 | 9.7 | 0.00 | 0.53 | 0.53 | 90 | 1017.5 |
| 20260507032142 | 26 | 87 | 9.7 | 11.3 | 0.00 | 0.53 | 0.53 | 90 | 1017.5 |
| 20260507031639 | 26 | 79 | 8.0 | 11.3 | 0.00 | 0.53 | 0.53 | 90 | 1017.6 |
| 20260507031135 | 26 | 77 | 8.0 | 16.1 | 0.00 | 0.53 | 0.53 | 90 | 1017.6 |
| 20260507030632 | 26 | 75 | 8.0 | 12.9 | 0.00 | 0.53 | 0.53 | 90 | 1017.6 |
| 20260507030130 | 26 | 83 | 8.0 | 14.5 | 0.00 | 0.53 | 0.53 | 90 | 1017.4 |
| 20260507025627 | 26 | 83 | 9.7 | 11.3 | 0.00 | 0.53 | 0.53 | 90 | 1017.7 |
| 20260507025124 | 26 | 73 | 14.5 | 16.1 | 0.00 | 0.53 | 0.53 | 90 | 1017.6 |
| 20260507024622 | 26 | 61 | 12.9 | 16.1 | 0.00 | 0.53 | 0.53 | 90 | 1017.6 |
| 20260507024119 | 26 | 77 | 11.3 | 11.3 | 0.00 | 0.53 | 0.53 | 90 | 1017.5 |